ONEWEB-0087, 45451

Orbit data source: Space-Track

ONEWEB-0087, 45451 is a payload satellite owned by One Web (UK) in LEO that was launched on Sat, 21 Mar 2020 UTC via a SOYUZ-2-1B launch vehicle from the Tyuratam Missile And Space Complex (TTMTR). Payload-class satellites include a variety of spacecraft equipped with specific instruments for various scientific and technological missions. These include communications satellites like Starlink; space stations such as the ISS; scientific satellites like the Hubble; Earth observation satellites from companies like Planet Labs, Umbra, and HawkEye 360; GPS; miniature CubeSats for education and research; and military/defense satellites.

Loading next visibility...
Identifier
45451, 2020-020AD
Orbit
LEO
Country
Flag of UKUK
Related business
Manufacturer
One Web
Mission
Operational Commercial Communications
Bus & Motor
ARROW, Unknown motor
Mass
148 kg wet, ~140 kg dry
Launch date (UTC)
2020-03-21 (6 years ago)
Launch vehicle
SOYUZ-2-1B
Launch site
Tyuratam Missile And Space Complex (TTMTR)
Object type
Payload
Rocket body
Debris
Shape & HBR
Trap Box + 2 Pan, 6.7 m
Radar Cross Section
3.464 m², Large (>1 m²)

Expand to show TLE details & history
Last TLE update: 10 hours ago

TLE from 10 hours ago
0 ONEWEB-0087
1 45451U 20020AD  26254.78070559 -.00000148  00000-0 -45445-3 0  9993
2 45451  87.8968   3.8353 0002070  99.5036 260.6326 13.11414998313935
Epoch: 2026-09-11T18:44Z
TLE epoch observation values (Epoch: 2026-09-11T18:44:12.962Z)
Latitude
-0.00004°
Longitude
91.98215°
Altitude
1,220.836 km
Speed
7.244 km/s
True Right ascension
00h 15m 20s
True Declination
0° 00' 00"
Sunlit
Object was in full shadow at epoch
Visualization orbit readout
Latitude
Unknown
Longitude
Unknown
Altitude
Unknown
Speed
Unknown
Apparent Right ascension
Unknown
Apparent Declination
Unknown
Sunlit
N/A
Visualization observer readout
Local Sidereal Time
20:52:40
Azimuth
Unknown
Elevation
Unknown
Doppler factor
Unknown
Orbital elements
Apogee altitude
1,216.38 km
Perigee altitude
1,213.237 km
Semi-major axis
7,592.945 km
Eccentricity
0.00021
Inclination
87.8968°
RAAN
3.8353°
Arg. of periapsis
99.5036°
True anomaly
260.6092°
Mean anomaly
260.6326°
Eccentric anomaly
260.6209°
Mean motion
3.28041 °/min
Orbital period
109.74 mins
BSTAR
-0.00045445
Loading maneuver chart data...
Computing Atmospheric mass density...
Loading historical data...
Loading historical data...
Loading historical data...
Loading historical data...
Loading historical data...
Loading historical data...
Loading historical data...

Documentation

Showing up to 5 results
|